TimeEST,TemperatureF,Dew PointF,Humidity,Sea Level PressureIn,VisibilityMPH,Wind Direction,Wind SpeedMPH,Gust SpeedMPH,PrecipitationIn,Events,Conditions,WindDirDegrees,DateUTC
12:53 AM,48.0,26.1,42,30.17,10.0,NNE,8.1,-,N/A,,Clear,20,2013-02-07 05:53:00
1:53 AM,46.9,25.0,42,30.17,10.0,NNE,6.9,-,N/A,,Clear,30,2013-02-07 06:53:00
2:53 AM,45.0,25.0,46,30.17,10.0,NNE,9.2,-,N/A,,Clear,30,2013-02-07 07:53:00
3:53 AM,46.0,24.1,42,30.18,10.0,NNE,8.1,-,N/A,,Clear,20,2013-02-07 08:53:00
4:53 AM,46.0,24.1,42,30.20,10.0,NNE,9.2,-,N/A,,Clear,30,2013-02-07 09:53:00
5:53 AM,46.0,24.1,42,30.20,10.0,NE,9.2,-,N/A,,Clear,40,2013-02-07 10:53:00
6:53 AM,45.0,25.0,46,30.20,10.0,NNE,9.2,-,N/A,,Clear,30,2013-02-07 11:53:00
7:13 AM,46.4,24.8,43,30.21,10.0,NE,9.2,-,N/A,,Mostly Cloudy,40,2013-02-07 12:13:00
7:53 AM,46.0,26.1,46,30.21,10.0,NE,10.4,-,N/A,,Overcast,40,2013-02-07 12:53:00
8:53 AM,46.0,27.0,47,30.22,10.0,NE,12.7,-,N/A,,Overcast,40,2013-02-07 13:53:00
9:53 AM,46.0,28.9,51,30.21,10.0,NE,13.8,23.0,N/A,,Overcast,40,2013-02-07 14:53:00
10:53 AM,46.0,32.0,58,30.19,10.0,NE,16.1,-,N/A,,Overcast,50,2013-02-07 15:53:00
11:53 AM,44.1,36.0,73,30.17,10.0,NE,11.5,19.6,0.00,Rain,Light Rain,40,2013-02-07 16:53:00
12:53 PM,43.0,37.0,80,30.15,9.0,NE,11.5,-,0.03,Rain,Light Rain,50,2013-02-07 17:53:00
1:53 PM,43.0,39.9,89,30.13,6.0,NNE,10.4,-,0.02,Rain,Light Rain,30,2013-02-07 18:53:00
2:53 PM,42.1,39.9,92,30.10,4.0,NE,10.4,-,0.04,Rain,Light Rain,50,2013-02-07 19:53:00
3:22 PM,42.8,39.2,87,30.10,4.0,NNE,11.5,-,0.02,Rain,Light Rain,30,2013-02-07 20:22:00
3:40 PM,42.8,39.2,87,30.08,3.0,NNE,13.8,21.9,0.04,Rain,Rain,30,2013-02-07 20:40:00
3:53 PM,41.0,39.9,96,30.08,3.0,NE,13.8,21.9,0.06,Rain,Rain,40,2013-02-07 20:53:00
3:56 PM,41.0,39.2,93,30.07,3.0,NE,13.8,-,0.00,Rain,Rain,40,2013-02-07 20:56:00
4:16 PM,42.8,39.2,87,30.07,3.0,NNE,12.7,-,0.03,Rain,Light Rain,30,2013-02-07 21:16:00
4:31 PM,42.8,39.2,87,30.06,3.0,NNE,12.7,-,0.04,Rain,Light Rain,30,2013-02-07 21:31:00
4:53 PM,42.1,39.9,92,30.05,3.0,NNE,12.7,-,0.06,Rain,Rain,30,2013-02-07 21:53:00
5:53 PM,42.1,39.9,92,30.03,4.0,NNE,12.7,20.7,0.06,Rain,Light Rain,30,2013-02-07 22:53:00
6:53 PM,42.1,39.9,92,30.03,4.0,NNE,13.8,-,0.08,Rain,Rain,30,2013-02-07 23:53:00
7:53 PM,42.1,39.9,92,30.02,4.0,NE,13.8,-,0.11,Rain,Rain,40,2013-02-08 00:53:00
8:53 PM,41.0,39.9,96,30.01,5.0,NE,11.5,-,0.10,Rain,Rain,40,2013-02-08 01:53:00
9:53 PM,41.0,39.9,96,30.00,8.0,NE,13.8,20.7,0.04,Rain,Light Rain,40,2013-02-08 02:53:00
10:53 PM,42.1,39.9,92,29.99,10.0,NNE,12.7,-,0.00,,Overcast,30,2013-02-08 03:53:00
11:53 PM,42.1,39.9,92,29.98,10.0,NNE,11.5,-,N/A,,Overcast,30,2013-02-08 04:53:00